Location: B?dargowo
(53.3916°N, 14.4413°E)
Time: 01:34:21
(UTC+00:00)

Cosmos 468 Rocket - Pass Details

Date: 05 February 2023
Orbit: 744 x 778 km, 74.0° (Epoch: 20 March)

Event Time Altitude Azimuth Distance (km) Brightness Sun altitude
Rises 16:40:47 0° 333° (NNW) 3,226 7.4 -7.5°
Reaches altitude 10° 16:43:10 10° 334° (NNW) 2,292 6.6 -7.9°
Maximum altitude 16:48:23 85° 63° (ENE) 761 4.0 -8.6°
Drops below altitude 10° 16:53:31 10° 153° (SSE) 2,260 6.3 -9.4°
Sets 16:55:51 0° 154° (SSE) 3,177 7.1 -9.7°
